Location: Newark
(13.2833°S, 176.1833°W)
Time: 10:28:28
(UTC+00:00)

Hubble Space Telescope - Pass Details

Date: 22 November 2019
Orbit: 536 x 540 km, 28.5° (Epoch: 09 December)

Event Time Altitude Azimuth Distance (km) Brightness Sun altitude
Exits shadow 16:38:51 - 251° (WSW) 2,519 3.7 -7.3°
Reaches altitude 10° 16:41:28 10° 229° (SW) 1,792 3.2 -6.7°
Maximum altitude 16:43:52 15° 194° (SSW) 1,508 3.2 -6.1°
Drops below altitude 10° 16:46:16 10° 158° (SSE) 1,794 4.1 -5.6°
Sets 16:49:23 0° 134° (SE) 2,685 5.9 -4.9°
